Regional Weather Roundup
Issued by NWS Charleston, WV

Home | Current Version | Previous Version | Text Only | Print | Product List | Glossary Off
Versions: 1 2 3 4 5 6 7 8 9 10 11 12 13 14 15 16 17 18 19 20 21 22 23 24 25 26 27 28 29 30 31 32 33 34 35 36 37 38 39 40 41 42 43 44 45 46 47 48 49 50

000
ASUS41 KRLX 261410
RWRRLX
West Virginia Regional Weather Roundup
National Weather Service Charleston WV
1000 AM EDT SUN APR 26 2015

Note: "fair" indicates few or no clouds below 12,000 feet with no
significant weather and/or obstructions to visibility.

WVZ003-261500-
Northern Panhandle of West Virginia

CITY           SKY/WX    TMP DP  RH WIND       PRES   REMARKS
WHEELING       SUNNY     49  30  48 NE9       29.76S
$$

WVZ009-261500-
Northwest West Virginia

CITY           SKY/WX    TMP DP  RH WIND       PRES   REMARKS
PARKERSBURG    MOSUNNY   50  35  56 VRB6      29.77S
$$

WVZ006-261500-
Western West Virginia

CITY           SKY/WX    TMP DP  RH WIND       PRES   REMARKS
HUNTINGTON     PTSUNNY   46  39  76 N5        29.75R
$$

WVZ015-261500-
West Central West Virginia

CITY           SKY/WX    TMP DP  RH WIND       PRES   REMARKS
CHARLESTON     CLOUDY    46  40  79 CALM      29.74R
$$

WVZ022-031-261500-
North Central West Virginia

CITY           SKY/WX    TMP DP  RH WIND       PRES   REMARKS
CLARKSBURG     SUNNY     49  33  54 E8        29.73R
MORGANTOWN     SUNNY     50  32  50 N8        29.74S
$$

WVZ025-035-042-045-261500-
Southern West Virginia

CITY           SKY/WX    TMP DP  RH WIND       PRES   REMARKS
BECKLEY        FOG       44  42  93 N6        29.68R VSB 1/4
LOGAN          FOG       41  41 100 MISG      29.69R VSB 1/4
BLUEFIELD      CLOUDY    46  42  86 CALM      29.69R FOG
LEWISBURG      NOT AVBL
$$

WVZ047-261500-
Northern Mountains of West Virginia

CITY           SKY/WX    TMP DP  RH WIND       PRES   REMARKS
ELKINS         MOSUNNY   48  27  43 NE10      29.96R
$$

WVZ052-261500-
Eastern Panhandle of West Virginia

CITY           SKY/WX    TMP DP  RH WIND       PRES   REMARKS
MARTINSBURG    MOSUNNY   52  34  50 N7        29.74R
PETERSBURG     CLOUDY    45  37  73 CALM      29.77R
$$


USA.gov is the U.S. government's official web portal to all federal, state and local government web resources and services.